Regional Weather Roundup
Issued by NWS Spokane, WA

Home | Current Version | Previous Version | Text Only | Print | Product List | Glossary On
Versions: 1 2 3 4 5 6 7 8 9 10 11 12 13 14 15 16 17 18 19 20 21 22 23 24 25 26 27 28 29 30 31 32 33 34 35 36 37 38 39 40 41 42 43 44 45 46 47 48 49 50
000
NZUS01 KOTX 251410
RWROTX
EASTERN WASHINGTON/NORTHERN IDAHO ROUNDUP
NATIONAL WEATHER SERVICE, SPOKANE WA
700 AM PDT WED MAY 25 2016

Note: "fair" indicated few or no clouds below 12,000 feet with no
significant weather and/or obstructions to visibility.

...NORTHEAST WASHINGTON AND NORTHERN IDAHO PANHANDLE...

CITY           SKY/WX    TMP DP  RH WIND       PRES   REMARKS
SPOKANE INTL   MOSUNNY   48  44  86 S8        29.98R
SPOKANE DOWNTO PTSUNNY   51  47  86 NE3       29.99R
COEUR D ALENE  PTSUNNY   48  46  93 SE9       29.97R
DEER PARK      MOSUNNY   47  45  93 CALM      29.99R
SANDPOINT      CLOUDY    46  46 100 CALM      29.99R FOG
BONNERS FERRY  FAIR      50  46  87 CALM      29.98S

...SOUTHEAST WASHINGTON AND SOUTHERN IDAHO PANHANDLE...

CITY           SKY/WX    TMP DP  RH WIND       PRES   REMARKS
WALLA WALLA    SUNNY     56  45  66 S7        30.01R
PULLMAN/MOSCOW PTSUNNY   53  48  83 CALM      30.02R
LEWISTON       CLOUDY    51  47  86 CALM      30.01R
LOWELL           N/A     49  44  83 CALM      30.05R

...COLUMBIA BASIN...

CITY           SKY/WX    TMP DP  RH WIND       PRES   REMARKS
EPHRATA        MOSUNNY   54  46  74 E3        29.95R
MOSES LAKE     SUNNY     52  46  80 CALM      29.97R
TRI CITIES     SUNNY     59  46  62 S13       29.99R
HERMISTON      MOSUNNY   60  45  57 SW9       30.00R
PENDLETON      SUNNY     51  43  74 S6        30.02R

...EAST SLOPES CASCADES...

CITY           SKY/WX    TMP DP  RH WIND       PRES   REMARKS
THE DALLES     SUNNY     58  48  69 W8        30.03R
YAKIMA         SUNNY     54  43  66 CALM      30.00R
ELLENSBURG     SUNNY     57  43  59 NW18G24   29.99R
STAMPEDE PASS  CLOUDY    43  41  93 VRB5      30.07R
WENATCHEE      SUNNY     59  42  53 NW13      29.96S
OMAK           SUNNY     55  46  71 CALM      29.95R

...SOUTHERN BRITISH COLUMBIA...

CITY           SKY/WX    TMP DP  RH WIND       PRES   REMARKS
PENTICTON      MOSUNNY   59  46  63 VRB2      29.97R
CASTLEGAR      MOSUNNY   52  48  87 VRB2      29.96S
CRANBROOK      MOSUNNY   48  43  81 CALM      29.95S

...WESTERN MONTANA...

CITY           SKY/WX    TMP DP  RH WIND       PRES   REMARKS
MISSOULA       CLOUDY    43  40  89 CALM      30.02S

...NEIGHBORING CITIES...

CITY           SKY/WX    TMP DP  RH WIND       PRES   REMARKS
SEATTLE        CLOUDY    53  50  89 SW9       30.11R
CALGARY        SUNNY     48  41  76 SW3       29.87R



USA.gov is the U.S. government's official web portal to all federal, state and local government web resources and services.